Satellite: AAUSAT2
Catalog number: 32788
Epoch time:      12005.72823773
Element set:     179
Inclination:      097.8250 deg
RA of node:       070.8784 deg
Eccentricity:    0.0014012
Arg of perigee:   233.1459 deg
Mean anomaly:     126.8474 deg
Mean motion:   14.83623731 rev/day
Decay rate:      2.276e-05 rev/day^2
Epoch rev:           19959
Checksum:              322

Satellite: DO-64
Catalog number: 32789
Epoch time:      12004.70183141
Element set:    0195
Inclination:      097.8347 deg
RA of node:       071.3393 deg
Eccentricity:    0.0014188
Arg of perigee:   235.7128 deg
Mean anomaly:     124.2721 deg
Mean motion:   14.84669861 rev/day
Decay rate:      4.053e-05 rev/day^2
Epoch rev:           19946
Checksum:              322

Satellite: CO-66
Catalog number: 32791
Epoch time:      12004.84820969
Element set:    0186
Inclination:      097.8276 deg
RA of node:       069.5749 deg
Eccentricity:    0.0014789
Arg of perigee:   235.2182 deg
Mean anomaly:     124.7611 deg
Mean motion:   14.82885380 rev/day
Decay rate:      1.471e-05 rev/day^2
Epoch rev:           19938
Checksum:              354

Satellite: RS-30
Catalog number: 32953
Epoch time:      12005.57660263
Element set:     407
Inclination:      082.5009 deg
RA of node:       036.8820 deg
Eccentricity:    0.0017766
Arg of perigee:   308.0602 deg
Mean anomaly:     051.8878 deg
Mean motion:   12.43019456 rev/day
Decay rate:        1.0e-07 rev/day^2
Epoch rev:           16423
Checksum:              276

Satellite: TACSAT-3
Catalog number: 35001
Epoch time:      12004.47116260
Element set:    0830
Inclination:      040.4515 deg
RA of node:       019.4920 deg
Eccentricity:    0.0006009
Arg of perigee:   229.5406 deg
Mean anomaly:     130.4897 deg
Mean motion:   15.66981221 rev/day
Decay rate:     7.9615e-04 rev/day^2
Epoch rev:           14842
Checksum:              272

Satellite: PHARMSAT
Catalog number: 35002
Epoch time:      12004.42047042
Element set:    0767
Inclination:      040.4681 deg
RA of node:       021.2838 deg
Eccentricity:    0.0010560
Arg of perigee:   280.6576 deg
Mean anomaly:     079.3052 deg
Mean motion:   15.61397965 rev/day
Decay rate:     4.6047e-04 rev/day^2
Epoch rev:           14840
Checksum:              276

Satellite: HAWKSAT1
Catalog number: 35003
Epoch time:      11276.79285837
Element set:     811
Inclination:      040.4398 deg
RA of node:       174.3672 deg
Eccentricity:    0.0011414
Arg of perigee:   274.3918 deg
Mean anomaly:     085.3844 deg
Mean motion:   16.13812532 rev/day
Decay rate:   2.274821e-02 rev/day^2
Epoch rev:           13457
Checksum:              306

Satellite: CP6
Catalog number: 35004
Epoch time:      11247.64656856
Element set:     784
Inclination:      040.4403 deg
RA of node:       342.9642 deg
Eccentricity:    0.0002956
Arg of perigee:   038.0069 deg
Mean anomaly:     322.2231 deg
Mean motion:   16.41039951 rev/day
Decay rate:  1.6152067e-01 rev/day^2
Epoch rev:           13013
Checksum:              285

Satellite: METEOR-M
Catalog number: 35865
Epoch time:      12005.74947673
Element set:      41
Inclination:      098.6796 deg
RA of node:       062.9573 deg
Eccentricity:    0.0002531
Arg of perigee:   148.9326 deg
Mean anomaly:     211.1997 deg
Mean motion:   14.21852991 rev/day
Decay rate:       -1.0e-08 rev/day^2
Epoch rev:           11937
Checksum:              315

Satellite: RS-38
Catalog number: 35869
Epoch time:      12005.93461897
Element set:      34
Inclination:      098.6762 deg
RA of node:       063.1586 deg
Eccentricity:    0.0004698
Arg of perigee:   155.4697 deg
Mean anomaly:     204.6706 deg
Mean motion:   14.22048168 rev/day
Decay rate:        4.0e-07 rev/day^2
Epoch rev:           11941
Checksum:              327

Satellite: ARISSAT1
Catalog number: 37772
Epoch time:      12004.04884568
Element set:     479
Inclination:      051.6129 deg
RA of node:       213.1240 deg
Eccentricity:    0.0007478
Arg of perigee:   255.9283 deg
Mean anomaly:     104.1611 deg
Mean motion:   16.41716225 rev/day
Decay rate:  1.3494171e-01 rev/day^2
Epoch rev:            2407
Checksum:              290

Satellite: JUGNU
Catalog number: 37839
Epoch time:      12005.93060571
Element set:      62
Inclination:      019.9635 deg
RA of node:       267.2409 deg
Eccentricity:    0.0018930
Arg of perigee:   224.3163 deg
Mean anomaly:     135.5678 deg
Mean motion:   14.12014815 rev/day
Decay rate:       6.20e-06 rev/day^2
Epoch rev:            1214
Checksum:              269

Satellite: SRMSAT
Catalog number: 37841
Epoch time:      12005.90498162
Element set:      62
Inclination:      019.9707 deg
RA of node:       269.0773 deg
Eccentricity:    0.0012160
Arg of perigee:   199.3803 deg
Mean anomaly:     160.6195 deg
Mean motion:   14.10105714 rev/day
Decay rate:       2.64e-06 rev/day^2
Epoch rev:            1211
Checksum:              266

Satellite: RAX-2
Catalog number: 37853
Epoch time:      12005.90651690
Element set:      61
Inclination:      101.7078 deg
RA of node:       332.0065 deg
Eccentricity:    0.0252358
Arg of perigee:   095.8575 deg
Mean anomaly:     267.1447 deg
Mean motion:   14.78362744 rev/day
Decay rate:      4.042e-05 rev/day^2
Epoch rev:            1025
Checksum:              290

Satellite: AUBIESAT
Catalog number: 37854
Epoch time:      12005.82910208
Element set:      64
Inclination:      101.7099 deg
RA of node:       331.9514 deg
Eccentricity:    0.0254196
Arg of perigee:   095.7566 deg
Mean anomaly:     267.2674 deg
Mean motion:   14.78598485 rev/day
Decay rate:      4.226e-05 rev/day^2
Epoch rev:            1023
Checksum:              314

Satellite: HRBE
Catalog number: 37855
Epoch time:      12005.89855686
Element set:      63
Inclination:      101.7109 deg
RA of node:       332.0507 deg
Eccentricity:    0.0254354
Arg of perigee:   095.3538 deg
Mean anomaly:     267.6695 deg
Mean motion:   14.78541060 rev/day
Decay rate:      4.011e-05 rev/day^2
Epoch rev:            1024
Checksum:              293

/EX




More information about the Keps mailing list